Home > Time Zones > World Clock > Weather > U.S.A. > Reno > Past weeks

Flag for U.S.A. Weather past 2 weeks in Reno, Nevada, U.S.A.

Now
37 °F

Clear.


Feels Like: 37 °F
Forecast: 25 / 53 °F
Wind: No wind

Location: Reno Tahoe International Airport

Current Time: Jan 31, 2015 at 12:59:09 AM

Latest Report: Jan 30, 2015 at 11:55 PM


Visibility: 10 mi

Pressure: 30.09 "Hg

Humidity: 70%

Dew point: 28 °F

Location of RenoLocation

Historic Weather in Reno — Graph

°F

Reno temperature yesterday

Maximum temperature yesterday: 53 °F (at 2:55 PM)
Minimum temperature yesterday: 37 °F (at 11:55 PM)
Average temperature yesterday: 45 °F

Past Weeks' High & Low Weather Summary

 TemperatureHumidityPressure
High63 °F (Jan 18, 12:55 PM)96% (Jan 17, 6:55 AM)30.60 "Hg (Jan 17, 6:55 AM)
Low24 °F (Jan 22, 5:55 AM)23% (Jan 18, 12:55 PM)29.98 "Hg (Jan 30, 3:55 PM)
Average42 °F59%30.26 "Hg
* Reported Jan 15 11:55 PM — Jan 30 11:55 PM, Reno, Weather by CustomWeather, © 2014

Note: Actual official high and low records may vary slightly from our data, if they occured in-between our weather recording intervals... More about our weather records

Advertising

Reno weather history for previous 24 hours

 ConditionsComfort  
Time TempWeatherWind HumidityBarometerVisibility
11:55 PM
Jan 30
37 °FClear.No wind70%30.09 "Hg10 mi
10:55 PM40 °FPassing clouds.7 mph65%30.08 "Hg10 mi
9:55 PM41 °FPassing clouds.5 mph62%30.08 "Hg10 mi
8:55 PM42 °FPassing clouds.3 mph60%30.07 "Hg10 mi
7:55 PM44 °FPassing clouds.3 mph55%30.05 "Hg10 mi
6:55 PM45 °FPassing clouds.7 mph51%30.04 "Hg10 mi
5:55 PM47 °FPassing clouds.12 mph50%30.02 "Hg10 mi
4:55 PM49 °FPassing clouds.13 mph46%30.00 "Hg10 mi
3:55 PM53 °FPassing clouds.14 mph39%29.98 "Hg10 mi
2:55 PM53 °FScattered clouds.10 mph41%29.99 "Hg10 mi
1:55 PM52 °FScattered clouds.7 mph47%30.00 "Hg10 mi
12:55 PM52 °FBroken clouds.No wind49%30.03 "Hg10 mi
11:55 AM51 °FScattered clouds.8 mph54%30.06 "Hg10 mi
10:55 AM50 °FScattered clouds.6 mph57%30.09 "Hg10 mi
9:55 AM46 °FBroken clouds.3 mph66%30.10 "Hg10 mi
8:55 AM43 °FBroken clouds.3 mph71%30.11 "Hg10 mi
7:55 AM40 °FBroken clouds.No wind77%30.10 "Hg10 mi
6:55 AM39 °FPartly cloudy.No wind79%30.09 "Hg10 mi
5:55 AM41 °FPartly cloudy.No wind74%30.09 "Hg10 mi
4:55 AM42 °FPartly cloudy.3 mph71%30.09 "Hg10 mi
3:55 AM43 °FPartly cloudy.No wind68%30.10 "Hg10 mi
2:55 AM43 °FPartly cloudy.3 mph68%30.10 "Hg10 mi
1:55 AM44 °FPassing clouds.No wind65%30.11 "Hg10 mi
12:55 AM44 °FPartly cloudy.5 mph65%30.12 "Hg10 mi
Weather by CustomWeather, © 2014

See weather overviewHow to use our weather pages